K0PFX-8 Weather Reports


Display with metric or nautical units.
time (UTC)temp
F
wind
direction
speed
MPH
gust
MPH
rain 1hr
in
rain 24hr
in
rain mn
in
humidity
%
barometer
mb
20180925223024 85 242 10.0 6.0 0.00 0.00 0.00 47 1012.1
20180925221523 85 273 11.0 12.0 0.00 0.00 0.00 50 1012.0
20180925220026 85 305 5.0 6.0 0.00 0.00 0.00 51 1011.9
20180925214520 85 245 13.0 12.0 0.00 0.00 0.00 50 1011.8
20180925213022 85 274 12.0 10.0 0.00 0.00 0.00 51 1011.8
20180925211514 85 293 6.0 7.0 0.00 0.00 0.00 55 1011.7
20180925210015 84 263 10.0 8.0 0.00 0.00 0.00 58 1011.8
20180925204510 84 259 10.0 13.0 0.00 0.00 0.00 55 1011.9
20180925203042 83 271 9.0 10.0 0.00 0.00 0.00 60 1012.0
20180925203011 83 271 9.0 10.0 0.00 0.00 0.00 60 1012.0
20180925201510 83 155 8.0 11.0 0.00 0.00 0.00 60 1012.2
20180925200011 83 253 3.0 10.0 0.00 0.00 0.00 63 1012.4
20180925194506 83 263 7.0 11.0 0.00 0.00 0.00 62 1012.6
20180925193050 82 172 5.0 9.0 0.00 0.00 0.00 65 1012.7
20180925193007 82 172 5.0 9.0 0.00 0.00 0.00 65 1012.7
20180925191500 82 235 7.0 8.0 0.00 0.00 0.00 67 1012.8
20180925190000 82 165 6.0 10.0 0.00 0.00 0.00 68 1012.9
20180925184454 82 270 7.0 6.0 0.00 0.00 0.00 68 1013.2
20180925183039 82 217 3.0 5.0 0.00 0.00 0.00 68 1013.4
20180925182955 82 217 3.0 5.0 0.00 0.00 0.00 68 1013.4
20180925181508 82 240 5.0 5.0 0.00 0.00 0.00 67 1013.5
20180925174441 80 97 4.0 4.0 0.00 0.00 0.00 73 1013.7
20180925173043 79 273 6.0 6.0 0.00 0.00 0.00 79 1014.0
20180925172942 79 273 6.0 6.0 0.00 0.00 0.00 79 1014.0
20180925171435 79 238 8.0 6.0 0.00 0.00 0.00 80 1014.1
20180925170040 79 221 4.0 7.0 0.00 0.00 0.00 81 1014.3
20180925165936 79 221 4.0 7.0 0.00 0.00 0.00 81 1014.3
20180925164429 79 163 3.0 0.0 0.00 0.00 0.00 81 1014.3
20180925163027 79 103 1.0 0.0 0.00 0.00 0.00 80 1014.3
20180925162935 79 103 1.0 0.0 0.00 0.00 0.00 80 1014.3
20180925161425 78 173 4.0 5.0 0.00 0.00 0.00 83 1014.4
20180925155926 78 190 4.0 5.0 0.00 0.00 0.00 87 1014.4
20180925154414 77 68 1.0 0.0 0.00 0.00 0.00 90 1014.3
20180925152916 76 293 2.0 5.0 0.00 0.00 0.00 91 1014.7
20180925145916 75 269 4.0 3.0 0.00 0.00 0.00 93 1014.9
20180925144411 75 260 7.0 6.0 0.00 0.00 0.00 93 1014.9
20180925142912 74 294 7.0 4.0 0.00 0.00 0.00 94 1014.9
20180925141404 74 283 4.0 7.0 0.00 0.00 0.00 96 1015.0
20180925135905 73 257 5.0 7.0 0.00 0.00 0.00 97 1015.1
20180925134359 73 249 3.0 0.0 0.00 0.00 0.00 97 1015.0
20180925132901 72 264 3.0 3.0 0.00 0.00 0.00 99 1015.0
20180925125901 71 131 0.0 0.0 0.00 0.00 0.00 100 1015.1
20180925124347 71 131 0.0 0.0 0.00 0.00 0.00 100 1015.0
20180925122849 70 131 0.0 0.0 0.00 0.00 0.00 99 1014.8
20180925121345 70 131 0.0 0.0 0.00 0.00 0.00 98 1014.6
20180925115846 70 131 0.0 0.0 0.00 0.00 0.00 99 1014.6
20180925114342 70 131 0.0 0.0 0.00 0.00 0.00 98 1014.6
20180925112843 71 131 0.0 0.0 0.00 0.00 0.00 98 1014.2
20180925111339 71 131 0.0 0.0 0.00 0.00 0.00 98 1014.0
20180925105840 71 131 0.0 0.0 0.00 0.00 0.00 98 1014.0
20180925104336 72 131 0.0 0.0 0.00 0.00 0.00 98 1014.0
20180925103852 72 131 0.0 0.0 0.00 0.00 0.00 98 1014.2
20180925102837 72 131 0.0 0.0 0.00 0.00 0.00 98 1014.2
20180925101331 72 131 0.0 0.0 0.00 0.00 0.00 98 1014.3
20180925095831 72 131 0.0 0.0 0.00 0.00 0.00 98 1014.1
20180925094328 72 131 0.0 0.0 0.00 0.00 0.00 97 1013.8
20180925092831 72 131 0.0 0.0 0.00 0.00 0.00 97 1013.9
20180925091322 72 131 0.0 0.0 0.00 0.00 0.00 97 1013.7
20180925085914 72 131 0.0 0.0 0.00 0.00 0.00 97 1013.8
20180925085822 72 131 0.0 0.0 0.00 0.00 0.00 97 1013.8
20180925084319 72 131 0.0 0.0 0.00 0.00 0.00 96 1013.7
20180925082821 73 131 0.0 0.0 0.00 0.00 0.00 96 1013.7
20180925082211 73 131 0.0 0.0 0.00 0.00 0.00 96 1013.7
20180925081314 73 131 0.0 0.0 0.00 0.00 0.00 96 1013.7
20180925075815 73 165 0.0 0.0 0.00 0.00 0.00 96 1013.9
20180925074310 73 194 1.0 6.0 0.00 0.00 0.00 96 1014.2
20180925072842 73 174 1.0 0.0 0.00 0.00 0.00 96 1014.2
20180925072809 73 174 1.0 0.0 0.00 0.00 0.00 96 1014.2
20180925072003 73 277 0.0 0.0 0.00 0.00 0.00 96 1014.3
20180925071305 73 277 0.0 0.0 0.00 0.00 0.00 96 1014.3
20180925070521 73 277 0.0 0.0 0.00 0.00 0.00 96 1014.6
20180925065842 73 277 0.0 0.0 0.00 0.00 0.00 96 1014.6
20180925065807 73 277 0.0 0.0 0.00 0.00 0.00 96 1014.6
20180925064300 73 240 0.0 0.0 0.00 0.00 0.00 95 1014.3
20180925062801 73 200 0.0 0.0 0.00 0.00 0.00 95 1014.3
20180925061255 74 132 1.0 0.0 0.00 0.00 0.00 95 1014.4
20180925055757 74 232 0.0 0.0 0.00 0.00 0.00 95 1014.3
20180925055006 74 252 2.0 3.0 0.00 0.00 0.00 95 1014.6
20180925054249 74 252 2.0 3.0 0.00 0.00 0.00 95 1014.6
20180925053911 74 256 2.0 0.0 0.00 0.00 0.00 94 1014.4
20180925052751 74 256 2.0 0.0 0.00 0.00 0.00 94 1014.4
20180925051245 74 264 4.0 3.0 0.00 0.00 0.00 94 1014.6
20180925045747 74 239 5.0 2.0 0.00 0.00 0.00 94 1014.7
20180925044241 74 274 4.0 3.0 0.00 0.00 0.00 94 1014.7
20180925042743 74 198 6.0 5.0 0.00 0.00 0.00 94 1014.6
20180925042111 74 136 0.0 0.0 0.00 0.00 0.00 94 1014.6
20180925041233 74 136 0.0 0.0 0.00 0.00 0.00 94 1014.6
20180925035734 74 158 1.0 0.0 0.00 0.00 0.00 94 1014.6
20180925034322 74 165 3.0 3.0 0.00 0.00 0.00 94 1014.4
20180925034231 74 165 3.0 3.0 0.00 0.00 0.00 94 1014.4
20180925032732 74 191 3.0 0.0 0.00 0.00 0.00 94 1014.6
20180925031227 75 293 3.0 3.0 0.00 0.00 0.00 93 1014.4
20180925025728 75 82 0.0 0.0 0.00 0.00 0.00 93 1014.2
20180925024225 75 166 5.0 7.0 0.00 0.00 0.00 93 1014.2
20180925022726 75 215 3.0 3.0 0.00 0.00 0.00 93 1014.3
20180925021220 75 264 5.0 4.0 0.00 0.00 0.00 93 1014.2
20180925015722 75 191 5.0 5.0 0.00 0.00 0.00 93 1014.1
20180925012722 75 156 0.0 7.0 0.00 0.00 0.00 93 1013.8
20180925005722 76 194 4.0 4.0 0.00 0.00 0.00 92 1013.6
20180925004215 76 211 4.0 5.0 0.00 0.00 0.00 92 1013.4
20180925002717 76 165 3.0 0.0 0.00 0.00 0.00 90 1013.4
20180925001210 77 245 3.0 2.0 0.00 0.00 0.00 89 1013.2
20180924235712 77 229 4.0 3.0 0.00 0.00 0.00 87 1013.1
20180924234206 78 195 4.0 0.0 0.00 0.00 0.00 84 1013.2
20180924232706 78 158 2.0 0.0 0.00 0.00 0.00 79 1013.2
20180924225703 78 256 1.0 0.0 0.00 0.00 0.00 76 1013.1
20180924224202 78 34 1.0 0.0 0.00 0.00 0.00 76 1013.1